Weather History for KPIL - March, 2012

Change the Weather History Date:

Sunday, March 25, 2012

  Actual Average Record
Temperature  
Mean Temperature 76 °F -  
Max Temperature 81 °F - - ()
Min Temperature 71 °F - - ()
Cooling Degree Days 10    
Growing Degree Days 26 (Base 50)    
Moisture  
Dew Point 70 °F    
Average Humidity 82    
Maximum Humidity 94    
Minimum Humidity 69    
Precipitation  
Precipitation 0.00 in - - ()
Sea Level Pressure  
Sea Level Pressure 30.00 in    
Wind  
Wind Speed 9 mph (ESE)    
Max Wind Speed 18 mph    
Max Gust Speed 24 mph    
Visibility 6 miles    
Events      
T = Trace of Precipitation, MM = Missing Value Source: NWS Daily Summary

Daily Weather History Graph

Daily Weather History Graph

Search for Another Location

Airport or City:

Trip Planner

Search our weather history database for the weather conditions in past years. The results will help you decide how hot, cold, wet, or windy it might be!

Date:

Astronomy

Mar. 25, 2012 Rise Set
Actual Time 7:27 AM CDT 7:43 PM CDT
Civil Twilight 7:04 AM CDT 8:06 PM CDT
Nautical Twilight 6:37 AM CDT 8:33 PM CDT
Astronomical Twilight 6:10 AM CDT 9:00 PM CDT
Moon 9:01 AM CDT (3/25) 10:36 PM CDT (3/25)
Length of Visible Light 13h 02m
Length of Day
12h 15m
Waxing Crescent, 9% of the Moon is Illuminated
Mar 25
Waxing Crescent
Mar 30
First Quarter
Apr 6
Full
Apr 13
Last Quarter
Apr 21
New

Hourly Weather History & Observations

Time (CDT) Temp. Heat Index Dew Point Humidity Pressure Visibility Wind Dir Wind Speed Gust Speed Precip Events Conditions
12:49 AM 73.4 °F - 69.8 °F 88% 30.00 in 6.0 mi ESE 6.9 mph - N/A   Partly Cloudy
12:53 AM 73.0 °F - 70.0 °F 90% 30.00 in 6.0 mi ESE 6.9 mph - N/A   Partly Cloudy
1:15 AM 73.4 °F - 69.8 °F 88% 30.00 in 6.0 mi ESE 6.9 mph - N/A   Mostly Cloudy
1:53 AM 72.0 °F - 70.0 °F 93% 30.00 in 6.0 mi SE 4.6 mph - N/A   Mostly Cloudy
2:53 AM 73.0 °F - 70.0 °F 90% 29.99 in 6.0 mi ESE 6.9 mph - N/A   Overcast
3:53 AM 73.0 °F - 70.0 °F 90% 29.98 in 6.0 mi SE 6.9 mph - N/A   Mostly Cloudy
4:53 AM 73.0 °F - 70.0 °F 90% 29.97 in 6.0 mi SE 5.8 mph - N/A   Overcast
5:07 AM 73.4 °F - 69.8 °F 88% 29.98 in 6.0 mi SE 5.8 mph - N/A   Overcast
5:29 AM 73.4 °F - 69.8 °F 88% 29.97 in 6.0 mi SE 5.8 mph - N/A   Overcast
5:53 AM 73.0 °F - 70.0 °F 90% 29.98 in 6.0 mi SE 6.9 mph - N/A   Overcast
6:04 AM 73.4 °F - 69.8 °F 88% 29.98 in 6.0 mi SE 6.9 mph - N/A   Overcast
6:35 AM 73.4 °F - 69.8 °F 88% 29.98 in 6.0 mi SE 6.9 mph - N/A   Overcast
6:43 AM 73.4 °F - 69.8 °F 88% 29.98 in 6.0 mi ESE 6.9 mph - N/A   Overcast
6:53 AM 73.0 °F - 70.0 °F 90% 29.99 in 6.0 mi SE 5.8 mph - N/A   Mostly Cloudy
7:48 AM 71.6 °F - 69.8 °F 94% 30.00 in 4.0 mi SE 3.5 mph - N/A   Scattered Clouds
7:53 AM 72.0 °F - 69.1 °F 91% 30.00 in 4.0 mi ESE 3.5 mph - N/A   Scattered Clouds
8:06 AM 73.4 °F - 69.8 °F 88% 30.00 in 4.0 mi SE 3.5 mph - N/A   Mostly Cloudy
8:39 AM 73.4 °F - 71.6 °F 94% 30.01 in 5.0 mi East 4.6 mph - N/A   Overcast
8:48 AM 73.4 °F - 69.8 °F 88% 30.01 in 5.0 mi Variable 5.8 mph - N/A   Mostly Cloudy
8:53 AM 73.9 °F - 70.0 °F 87% 30.01 in 5.0 mi ESE 5.8 mph - N/A   Mostly Cloudy
9:10 AM 75.2 °F - 71.6 °F 89% 30.01 in 5.0 mi ESE 5.8 mph - N/A   Mostly Cloudy
9:13 AM 75.2 °F - 71.6 °F 89% 30.01 in 5.0 mi East 6.9 mph - N/A   Scattered Clouds
9:53 AM 77.0 °F - 70.0 °F 79% 30.03 in 5.0 mi ESE 6.9 mph - N/A   Haze
10:07 AM 77.0 °F - 69.8 °F 78% 30.03 in 6.0 mi ESE 6.9 mph - N/A   Haze
10:21 AM 78.8 °F - 71.6 °F 78% 30.03 in 6.0 mi East 6.9 mph - N/A   Haze
10:39 AM 78.8 °F - 71.6 °F 78% 30.03 in 6.0 mi East 8.1 mph - N/A   Haze
11:00 AM 77.0 °F - 69.8 °F 78% 30.04 in 6.0 mi East 10.4 mph - N/A   Haze
11:17 AM 77.0 °F - 71.6 °F 83% 30.04 in 6.0 mi East 11.5 mph - N/A   Haze
11:20 AM 77.0 °F - 69.8 °F 78% 30.04 in 6.0 mi East 10.4 mph - N/A   Haze
11:41 AM 78.8 °F - 71.6 °F 78% 30.04 in 6.0 mi East 11.5 mph - N/A   Haze
11:53 AM 79.0 °F - 71.1 °F 77% 30.04 in 6.0 mi East 11.5 mph - N/A   Haze
12:45 PM 80.6 °F 83.9 °F 69.8 °F 70% 30.03 in 6.0 mi East 13.8 mph - N/A   Haze
12:53 PM 80.1 °F 83.2 °F 70.0 °F 71% 30.03 in 6.0 mi East 15.0 mph - N/A   Haze
1:17 PM 80.6 °F 83.9 °F 69.8 °F 70% 30.02 in 6.0 mi East 16.1 mph - N/A   Haze
1:40 PM 80.6 °F 83.9 °F 69.8 °F 70% 30.01 in 6.0 mi East 17.3 mph - N/A   Haze
1:53 PM 80.1 °F 82.9 °F 69.1 °F 69% 30.01 in 6.0 mi East 15.0 mph - N/A   Haze
2:50 PM 80.6 °F 83.9 °F 69.8 °F 70% 29.99 in 7.0 mi East 17.3 mph 23.0 mph N/A   Mostly Cloudy
2:53 PM 80.1 °F 83.2 °F 70.0 °F 71% 29.99 in 7.0 mi ENE 17.3 mph 24.2 mph N/A   Mostly Cloudy
3:19 PM 78.8 °F - 69.8 °F 74% 29.98 in 7.0 mi East 17.3 mph - N/A   Scattered Clouds
3:37 PM 78.8 °F - 69.8 °F 74% 29.98 in 7.0 mi East 16.1 mph - N/A   Mostly Cloudy
3:48 PM 78.8 °F - 69.8 °F 74% 29.98 in 7.0 mi East 16.1 mph - N/A   Mostly Cloudy
3:53 PM 78.1 °F - 70.0 °F 76% 29.97 in 7.0 mi East 17.3 mph - N/A   Overcast
4:07 PM 78.8 °F - 69.8 °F 74% 29.97 in 7.0 mi East 18.4 mph - N/A   Overcast
4:37 PM 77.0 °F - 69.8 °F 78% 29.97 in 7.0 mi East 13.8 mph - N/A   Overcast
4:53 PM 77.0 °F - 69.1 °F 76% 29.97 in 7.0 mi East 17.3 mph - N/A   Overcast
5:32 PM 78.8 °F - 69.8 °F 74% 29.96 in 7.0 mi East 17.3 mph - N/A   Mostly Cloudy
5:46 PM 77.0 °F - 69.8 °F 78% 29.96 in 7.0 mi East 15.0 mph - N/A   Scattered Clouds
5:53 PM 78.1 °F - 69.1 °F 74% 29.96 in 7.0 mi East 13.8 mph - N/A   Partly Cloudy
6:53 PM 75.9 °F - 69.1 °F 79% 29.96 in 7.0 mi ESE 15.0 mph - N/A   Partly Cloudy
7:53 PM 73.9 °F - 68.0 °F 82% 29.97 in 7.0 mi East 10.4 mph - N/A   Clear
8:53 PM 73.0 °F - 69.1 °F 87% 29.99 in 8.0 mi East 11.5 mph - N/A   Scattered Clouds
9:07 PM 73.4 °F - 69.8 °F 88% 29.99 in 8.0 mi East 12.7 mph - N/A   Mostly Cloudy
9:43 PM 73.4 °F - 68.0 °F 83% 30.00 in 8.0 mi East 11.5 mph - N/A   Scattered Clouds
9:53 PM 73.0 °F - 68.0 °F 84% 30.01 in 8.0 mi East 12.7 mph - N/A   Partly Cloudy
10:53 PM 73.0 °F - 68.0 °F 84% 30.01 in 7.0 mi East 13.8 mph - N/A   Partly Cloudy
11:53 PM 72.0 °F - 68.0 °F 87% 30.02 in 8.0 mi East 9.2 mph - N/A   Clear